N388PD SFAL-SAWH

Flight info

Callsign N388PD
Flight time 1h 22m
Altitude 43000
Route MTP DCT ATOKI DCT GRA/N0410F410 DCT DABLI DABLI1Q
Aircraft HDJT/L-SABDGRWY/H

Departure

Time 2026-04-16 11:56
Airport Port Stanley Airport (SFAL)

Arrival

Time 2026-04-16 13:18
Airport Ushuaia - Malvinas Argentinas International Airport (SAWH)
Time Latitude Longitude Altitude Speed Heading
2026-04-16 11:43 -51.68733 -57.78047 71 ft 0 kts 179°
2026-04-16 11:53 -51.68723 -57.78029 66 ft 10 kts 357°
2026-04-16 11:53 -51.68655 -57.78021 73 ft 7 kts
2026-04-16 11:54 -51.68604 -57.78014 74 ft 5 kts 345°
2026-04-16 11:54 -51.68593 -57.78055 74 ft 9 kts 269°
2026-04-16 11:54 -51.68594 -57.78216 75 ft 19 kts 270°
2026-04-16 11:54 -51.68593 -57.78377 76 ft 6 kts 208°
2026-04-16 11:55 -51.68601 -57.78357 72 ft 4 kts 43°
2026-04-16 11:55 -51.68594 -57.78219 75 ft 38 kts 89°
2026-04-16 11:55 -51.68589 -57.77335 69 ft 118 kts 89°
2026-04-16 11:55 -51.68565 -57.75795 476 ft 148 kts 79°
2026-04-16 11:56 -51.68533 -57.74052 1084 ft 161 kts 77°
2026-04-16 11:56 -51.68574 -57.72186 1637 ft 180 kts 88°
2026-04-16 11:56 -51.69174 -57.70302 2314 ft 196 kts 129°
2026-04-16 11:56 -51.70422 -57.69186 2783 ft 225 kts 175°
2026-04-16 11:57 -51.71950 -57.69469 3412 ft 225 kts 216°
2026-04-16 11:57 -51.73170 -57.71176 3555 ft 241 kts 249°
2026-04-16 11:57 -51.73649 -57.73642 3719 ft 235 kts 271°
2026-04-16 11:57 -51.73872 -57.76296 3787 ft 240 kts 270°
2026-04-16 11:58 -51.74103 -57.78979 3816 ft 244 kts 270°
2026-04-16 11:58 -51.74324 -57.81690 3881 ft 245 kts 271°
2026-04-16 11:58 -51.74532 -57.84472 3915 ft 261 kts 272°
2026-04-16 11:58 -51.74717 -57.87363 4154 ft 248 kts 273°
2026-04-16 11:59 -51.74891 -57.90087 4173 ft 242 kts 273°
2026-04-16 11:59 -51.75066 -57.92781 4078 ft 242 kts 273°
2026-04-16 11:59 -51.75174 -57.94563 4046 ft 240 kts 274°
2026-04-16 11:59 -51.75471 -57.98089 4006 ft 245 kts 264°
2026-04-16 12:00 -51.75941 -58.00784 4102 ft 253 kts 265°
2026-04-16 12:00 -51.76347 -58.03491 5110 ft 247 kts 265°
2026-04-16 12:00 -51.76762 -58.06211 6004 ft 253 kts 264°
2026-04-16 12:00 -51.77063 -58.08058 6466 ft 262 kts 263°
2026-04-16 12:01 -51.77550 -58.10931 7256 ft 266 kts 263°
2026-04-16 12:01 -51.78023 -58.13829 8058 ft 269 kts 263°
2026-04-16 12:01 -51.78493 -58.16765 8885 ft 272 kts 262°
2026-04-16 12:02 -51.79628 -58.23728 10635 ft 280 kts 262°
2026-04-16 12:02 -51.80125 -58.26790 11309 ft 284 kts 262°
2026-04-16 12:02 -51.80460 -58.28886 11752 ft 287 kts 262°
2026-04-16 12:02 -51.80961 -58.31981 12420 ft 291 kts 262°
2026-04-16 12:03 -51.81480 -58.35157 13099 ft 294 kts 263°
2026-04-16 12:03 -51.81994 -58.38375 13739 ft 298 kts 263°
2026-04-16 12:03 -51.82520 -58.41633 14318 ft 301 kts 262°
2026-04-16 12:03 -51.83264 -58.44847 14895 ft 310 kts 252°
2026-04-16 12:04 -51.84147 -58.48040 15465 ft 311 kts 255°
2026-04-16 12:04 -51.84939 -58.51298 16042 ft 313 kts 256°
2026-04-16 12:04 -51.85755 -58.54577 16605 ft 317 kts 255°
2026-04-16 12:04 -51.86619 -58.57819 17150 ft 319 kts 254°
2026-04-16 12:05 -51.87482 -58.61148 17687 ft 321 kts 255°
2026-04-16 12:05 -51.88325 -58.64513 18208 ft 324 kts 255°
2026-04-16 12:05 -51.89190 -58.67893 18668 ft 326 kts 255°
2026-04-16 12:05 -51.90068 -58.71291 19150 ft 327 kts 255°
2026-04-16 12:06 -51.90937 -58.74705 19622 ft 329 kts 255°
2026-04-16 12:06 -51.91804 -58.78130 20133 ft 329 kts 256°
2026-04-16 12:06 -51.92680 -58.81559 20587 ft 330 kts 256°
2026-04-16 12:06 -51.93558 -58.85009 21013 ft 331 kts 256°
2026-04-16 12:07 -51.94419 -58.88426 21440 ft 333 kts 256°
2026-04-16 12:07 -51.95299 -58.91904 21860 ft 335 kts 255°
2026-04-16 12:07 -51.96188 -58.95397 22283 ft 336 kts 255°
2026-04-16 12:07 -51.97072 -58.98915 22704 ft 337 kts 256°
2026-04-16 12:08 -51.97957 -59.02440 23101 ft 339 kts 255°
2026-04-16 12:08 -51.98855 -59.05991 23485 ft 341 kts 255°
2026-04-16 12:08 -51.99747 -59.09553 23814 ft 342 kts 255°
2026-04-16 12:08 -52.00648 -59.13141 24145 ft 344 kts 255°
2026-04-16 12:09 -52.01549 -59.16742 24469 ft 345 kts 255°
2026-04-16 12:09 -52.02454 -59.20367 24810 ft 347 kts 256°
2026-04-16 12:09 -52.03361 -59.23996 25155 ft 348 kts 256°
2026-04-16 12:09 -52.04258 -59.27595 25459 ft 349 kts 256°
2026-04-16 12:10 -52.05168 -59.31265 25770 ft 351 kts 256°
2026-04-16 12:10 -52.06085 -59.34949 26070 ft 352 kts 256°
2026-04-16 12:10 -52.07002 -59.38648 26377 ft 354 kts 256°
2026-04-16 12:10 -52.07918 -59.42355 26761 ft 352 kts 256°
2026-04-16 12:11 -52.08832 -59.46043 27145 ft 352 kts 256°
2026-04-16 12:11 -52.09741 -59.49732 27535 ft 351 kts 256°
2026-04-16 12:11 -52.10645 -59.53413 27931 ft 350 kts 256°
2026-04-16 12:11 -52.11551 -59.57087 28357 ft 349 kts 256°
2026-04-16 12:12 -52.12437 -59.60702 28799 ft 348 kts 256°
2026-04-16 12:12 -52.13331 -59.64356 29258 ft 347 kts 256°
2026-04-16 12:12 -52.14227 -59.68006 29727 ft 346 kts 256°
2026-04-16 12:12 -52.15113 -59.71643 30131 ft 345 kts 256°
2026-04-16 12:13 -52.15997 -59.75271 30535 ft 344 kts 256°
2026-04-16 12:13 -52.16880 -59.78890 30945 ft 343 kts 256°
2026-04-16 12:13 -52.17754 -59.82499 31349 ft 342 kts 256°
2026-04-16 12:13 -52.18628 -59.86092 31759 ft 341 kts 256°
2026-04-16 12:14 -52.19495 -59.89677 32157 ft 339 kts 256°
2026-04-16 12:14 -52.20359 -59.93253 32574 ft 338 kts 256°
2026-04-16 12:14 -52.21221 -59.96817 32994 ft 337 kts 256°
2026-04-16 12:14 -52.22074 -60.00366 33410 ft 336 kts 256°
2026-04-16 12:15 -52.22916 -60.03862 33816 ft 335 kts 256°
2026-04-16 12:15 -52.23764 -60.07388 34177 ft 334 kts 256°
2026-04-16 12:15 -52.24609 -60.10923 34497 ft 334 kts 256°
2026-04-16 12:15 -52.25456 -60.14450 34860 ft 333 kts 256°
2026-04-16 12:16 -52.26296 -60.17966 35225 ft 332 kts 257°
2026-04-16 12:16 -52.27132 -60.21470 35590 ft 331 kts 257°
2026-04-16 12:16 -52.27965 -60.24963 35948 ft 329 kts 257°
2026-04-16 12:16 -52.28791 -60.28440 36314 ft 328 kts 257°
2026-04-16 12:17 -52.29616 -60.31908 36678 ft 327 kts 257°
2026-04-16 12:17 -52.30435 -60.35365 37045 ft 326 kts 257°
2026-04-16 12:17 -52.31250 -60.38810 37411 ft 325 kts 257°
2026-04-16 12:17 -52.32063 -60.42244 37764 ft 323 kts 258°
2026-04-16 12:18 -52.32859 -60.45624 38127 ft 322 kts 258°
2026-04-16 12:18 -52.33665 -60.49037 38468 ft 321 kts 258°
2026-04-16 12:18 -52.34464 -60.52440 38760 ft 321 kts 258°
2026-04-16 12:18 -52.35265 -60.55855 39003 ft 321 kts 258°
2026-04-16 12:19 -52.36066 -60.59264 39256 ft 321 kts 258°
2026-04-16 12:19 -52.36866 -60.62681 39495 ft 321 kts 258°
2026-04-16 12:19 -52.37663 -60.66092 39744 ft 321 kts 258°
2026-04-16 12:19 -52.38460 -60.69504 39992 ft 321 kts 258°
2026-04-16 12:20 -52.39245 -60.72877 40240 ft 321 kts 258°
2026-04-16 12:20 -52.40040 -60.76291 40490 ft 321 kts 258°
2026-04-16 12:20 -52.40832 -60.79707 40726 ft 321 kts 258°
2026-04-16 12:20 -52.41625 -60.83122 40980 ft 321 kts 257°
2026-04-16 12:21 -52.42414 -60.86533 41232 ft 321 kts 257°
2026-04-16 12:21 -52.43205 -60.89953 41488 ft 321 kts 257°
2026-04-16 12:21 -52.43993 -60.93367 41740 ft 320 kts 257°
2026-04-16 12:21 -52.44780 -60.96786 42026 ft 320 kts 258°
2026-04-16 12:22 -52.45566 -61.00202 42283 ft 320 kts 258°
2026-04-16 12:22 -52.46352 -61.03620 42538 ft 320 kts 258°
2026-04-16 12:22 -52.47125 -61.06997 42674 ft 324 kts 258°
2026-04-16 12:22 -52.47921 -61.10491 42678 ft 330 kts 257°
2026-04-16 12:23 -52.49565 -61.17679 42673 ft 342 kts 257°
2026-04-16 12:23 -52.51257 -61.25113 42677 ft 353 kts 257°
2026-04-16 12:24 -52.52993 -61.32767 42660 ft 362 kts 257°
2026-04-16 12:24 -52.54762 -61.40596 42706 ft 369 kts 257°
2026-04-16 12:25 -52.56542 -61.48497 42663 ft 372 kts 257°
2026-04-16 12:25 -52.58332 -61.56484 42653 ft 373 kts 257°
2026-04-16 12:26 -52.60122 -61.64497 42651 ft 373 kts 257°
2026-04-16 12:26 -52.61908 -61.72520 42639 ft 373 kts 257°
2026-04-16 12:27 -52.63689 -61.80553 42632 ft 374 kts 257°
2026-04-16 12:27 -52.65452 -61.88541 42619 ft 375 kts 258°
2026-04-16 12:28 -52.67225 -61.96597 42624 ft 374 kts 258°
2026-04-16 12:28 -52.68990 -62.04659 42613 ft 374 kts 258°
2026-04-16 12:29 -52.70750 -62.12722 42610 ft 374 kts 258°
2026-04-16 12:29 -52.72491 -62.20730 42610 ft 373 kts 258°
2026-04-16 12:30 -52.74242 -62.28795 42597 ft 374 kts 258°
2026-04-16 12:30 -52.75995 -62.36884 42600 ft 374 kts 258°
2026-04-16 12:31 -52.77741 -62.44969 42588 ft 374 kts 258°
2026-04-16 12:31 -52.79469 -62.53003 42584 ft 373 kts 258°
2026-04-16 12:32 -52.81200 -62.61091 42572 ft 373 kts 258°
2026-04-16 12:32 -52.82925 -62.69182 42570 ft 373 kts 258°
2026-04-16 12:33 -52.84647 -62.77286 42575 ft 373 kts 258°
2026-04-16 12:33 -52.86365 -62.85404 42554 ft 374 kts 259°
2026-04-16 12:34 -52.88064 -62.93465 42557 ft 373 kts 259°
2026-04-16 12:34 -52.89767 -63.01576 42545 ft 373 kts 259°
2026-04-16 12:35 -52.91464 -63.09696 42543 ft 373 kts 259°
2026-04-16 12:35 -52.93155 -63.17824 42535 ft 373 kts 259°
2026-04-16 12:36 -52.94831 -63.25901 42536 ft 374 kts 259°
2026-04-16 12:36 -52.96518 -63.34067 42521 ft 374 kts 259°
2026-04-16 12:37 -52.98194 -63.42219 42519 ft 373 kts 259°
2026-04-16 12:37 -52.99865 -63.50382 42519 ft 373 kts 259°
2026-04-16 12:38 -53.01520 -63.58492 42512 ft 373 kts 259°
2026-04-16 12:38 -53.03180 -63.66660 42512 ft 373 kts 259°
2026-04-16 12:39 -53.04835 -63.74843 42492 ft 375 kts 259°
2026-04-16 12:39 -53.06489 -63.83053 42494 ft 375 kts 259°
2026-04-16 12:40 -53.08140 -63.91279 42494 ft 375 kts 259°
2026-04-16 12:40 -53.09772 -63.99453 42495 ft 375 kts 259°
2026-04-16 12:41 -53.11412 -64.07693 42501 ft 375 kts 259°
2026-04-16 12:41 -53.13044 -64.15929 42493 ft 375 kts 259°
2026-04-16 12:42 -53.14671 -64.24177 42493 ft 375 kts 259°
2026-04-16 12:42 -53.16291 -64.32425 42482 ft 375 kts 259°
2026-04-16 12:43 -53.17906 -64.40685 42477 ft 375 kts 259°
2026-04-16 12:43 -53.19505 -64.48897 42469 ft 375 kts 260°
2026-04-16 12:44 -53.21109 -64.57165 42466 ft 375 kts 260°
2026-04-16 12:44 -53.22707 -64.65441 42513 ft 375 kts 260°
2026-04-16 12:45 -53.24302 -64.73741 42459 ft 376 kts 260°
2026-04-16 12:45 -53.25882 -64.81997 42454 ft 375 kts 260°
2026-04-16 12:46 -53.27466 -64.90305 42443 ft 375 kts 260°
2026-04-16 12:46 -53.29042 -64.98611 42446 ft 375 kts 260°
2026-04-16 12:47 -53.30613 -65.06929 42436 ft 375 kts 260°
2026-04-16 12:47 -53.32177 -65.15249 42436 ft 376 kts 261°
2026-04-16 12:48 -53.33730 -65.23533 42424 ft 375 kts 261°
2026-04-16 12:48 -53.35283 -65.31871 42424 ft 375 kts 261°
2026-04-16 12:49 -53.36829 -65.40205 42425 ft 375 kts 261°
2026-04-16 12:49 -53.38369 -65.48542 42420 ft 375 kts 261°
2026-04-16 12:50 -53.39904 -65.56881 42417 ft 374 kts 261°
2026-04-16 12:50 -53.41423 -65.65185 42408 ft 377 kts 261°
2026-04-16 12:51 -53.42957 -65.73592 42409 ft 378 kts 261°
2026-04-16 12:51 -53.44487 -65.82025 42398 ft 378 kts 261°
2026-04-16 12:52 -53.46010 -65.90466 42397 ft 378 kts 262°
2026-04-16 12:52 -53.47518 -65.98854 42399 ft 378 kts 262°
2026-04-16 12:53 -53.49031 -66.07311 42391 ft 378 kts 262°
2026-04-16 12:53 -53.50542 -66.15793 42387 ft 380 kts 262°
2026-04-16 12:54 -53.52051 -66.24308 42383 ft 380 kts 262°
2026-04-16 12:54 -53.53554 -66.32828 42384 ft 380 kts 262°
2026-04-16 12:55 -53.55045 -66.41318 41894 ft 382 kts 262°
2026-04-16 12:55 -53.55792 -66.45584 41377 ft 379 kts 262°
2026-04-16 12:55 -53.56535 -66.49815 40882 ft 374 kts 263°
2026-04-16 12:56 -53.57260 -66.53992 40402 ft 370 kts 263°
2026-04-16 12:56 -53.57979 -66.58141 39970 ft 368 kts 264°
2026-04-16 12:56 -53.58696 -66.62286 39411 ft 369 kts 264°
2026-04-16 12:56 -53.59413 -66.66430 38908 ft 368 kts 265°
2026-04-16 12:57 -53.60127 -66.70562 38413 ft 366 kts 266°
2026-04-16 12:57 -53.60702 -66.74631 37922 ft 359 kts 271°
2026-04-16 12:57 -53.61331 -66.78710 36874 ft 364 kts 263°
2026-04-16 12:57 -53.62356 -66.82702 35497 ft 378 kts 256°
2026-04-16 12:58 -53.63741 -66.86540 34225 ft 390 kts 249°
2026-04-16 12:58 -53.65480 -66.90131 32835 ft 402 kts 241°
2026-04-16 12:58 -53.67571 -66.93391 31153 ft 418 kts 232°
2026-04-16 12:58 -53.70065 -66.96189 30259 ft 437 kts 222°
2026-04-16 12:59 -53.72778 -66.98613 29911 ft 443 kts 219°
2026-04-16 12:59 -53.75540 -67.01030 29409 ft 453 kts 219°
2026-04-16 12:59 -53.78313 -67.03429 28773 ft 453 kts 218°
2026-04-16 13:00 -53.83865 -67.08214 28373 ft 451 kts 219°
2026-04-16 13:00 -53.86625 -67.10658 27772 ft 450 kts 219°
2026-04-16 13:00 -53.89407 -67.13073 27188 ft 447 kts 218°
2026-04-16 13:00 -53.92172 -67.15443 26601 ft 444 kts 218°
2026-04-16 13:01 -53.94903 -67.17833 26011 ft 438 kts 219°
2026-04-16 13:01 -53.97592 -67.20218 25433 ft 434 kts 219°
2026-04-16 13:01 -54.00264 -67.22554 24860 ft 431 kts 218°
2026-04-16 13:01 -54.02920 -67.24861 24296 ft 427 kts 219°
2026-04-16 13:02 -54.05508 -67.27145 23744 ft 423 kts 219°
2026-04-16 13:02 -54.08103 -67.29449 23198 ft 419 kts 219°
2026-04-16 13:02 -54.10681 -67.31711 22590 ft 413 kts 218°
2026-04-16 13:02 -54.13217 -67.33936 22036 ft 408 kts 219°
2026-04-16 13:03 -54.15728 -67.36161 21506 ft 405 kts 219°
2026-04-16 13:03 -54.18218 -67.38382 20966 ft 402 kts 219°
2026-04-16 13:03 -54.20698 -67.40572 20439 ft 400 kts 218°
2026-04-16 13:03 -54.23157 -67.42743 19911 ft 396 kts 219°
2026-04-16 13:04 -54.25589 -67.44911 19391 ft 392 kts 219°
2026-04-16 13:04 -54.27997 -67.47060 18874 ft 389 kts 218°
2026-04-16 13:04 -54.30388 -67.49188 18364 ft 386 kts 218°
2026-04-16 13:04 -54.32763 -67.51300 17852 ft 383 kts 218°
2026-04-16 13:05 -54.35115 -67.53408 17316 ft 380 kts 218°
2026-04-16 13:05 -54.37440 -67.55494 16807 ft 376 kts 218°
2026-04-16 13:05 -54.39723 -67.57530 16351 ft 375 kts 218°
2026-04-16 13:05 -54.42039 -67.59614 15823 ft 374 kts 218°
2026-04-16 13:06 -54.44327 -67.61668 15334 ft 370 kts 218°
2026-04-16 13:06 -54.46603 -67.63705 14834 ft 368 kts 217°
2026-04-16 13:06 -54.48999 -67.65338 14333 ft 376 kts 204°
2026-04-16 13:06 -54.51583 -67.66228 13851 ft 381 kts 194°
2026-04-16 13:07 -54.54247 -67.66328 13353 ft 384 kts 182°
2026-04-16 13:07 -54.56907 -67.65978 12817 ft 381 kts 181°
2026-04-16 13:07 -54.59533 -67.65698 12306 ft 376 kts 182°
2026-04-16 13:07 -54.62092 -67.65459 11818 ft 362 kts 182°
2026-04-16 13:08 -54.64622 -67.65174 11336 ft 357 kts 181°
2026-04-16 13:08 -54.67042 -67.64868 10869 ft 343 kts 181°
2026-04-16 13:08 -54.69411 -67.64618 10424 ft 339 kts 182°
2026-04-16 13:08 -54.71716 -67.64385 9973 ft 332 kts 182°
2026-04-16 13:09 -54.73910 -67.64558 9549 ft 300 kts 198°
2026-04-16 13:09 -54.75880 -67.65337 9156 ft 285 kts 201°
2026-04-16 13:09 -54.77791 -67.66062 8746 ft 278 kts 201°
2026-04-16 13:09 -54.79685 -67.66754 8400 ft 280 kts 201°
2026-04-16 13:10 -54.81572 -67.67481 8021 ft 276 kts 201°
2026-04-16 13:10 -54.83467 -67.68114 7649 ft 277 kts 200°
2026-04-16 13:10 -54.85311 -67.68871 7220 ft 267 kts 211°
2026-04-16 13:10 -54.86862 -67.70377 6859 ft 244 kts 228°
2026-04-16 13:11 -54.88057 -67.72364 6563 ft 243 kts 242°
2026-04-16 13:11 -54.88928 -67.74776 6241 ft 227 kts 255°
2026-04-16 13:11 -54.89409 -67.77311 5933 ft 217 kts 268°
2026-04-16 13:11 -54.89548 -67.79865 5641 ft 208 kts 279°
2026-04-16 13:12 -54.89373 -67.82309 5361 ft 202 kts 289°
2026-04-16 13:12 -54.89081 -67.84715 5091 ft 205 kts 288°
2026-04-16 13:12 -54.88815 -67.87150 4824 ft 205 kts 288°
2026-04-16 13:12 -54.88539 -67.89575 4554 ft 204 kts 288°
2026-04-16 13:13 -54.88277 -67.91906 4306 ft 186 kts 288°
2026-04-16 13:13 -54.88037 -67.94014 4071 ft 171 kts 289°
2026-04-16 13:13 -54.87804 -67.95998 3854 ft 169 kts 289°
2026-04-16 13:13 -54.87572 -67.98002 3637 ft 169 kts 289°
2026-04-16 13:14 -54.87337 -68.00010 3414 ft 171 kts 288°
2026-04-16 13:14 -54.87104 -68.02040 3191 ft 173 kts 288°
2026-04-16 13:14 -54.86788 -68.04053 2964 ft 173 kts 293°
2026-04-16 13:14 -54.86451 -68.06023 2876 ft 166 kts 291°
2026-04-16 13:15 -54.86119 -68.07991 2881 ft 172 kts 292°
2026-04-16 13:15 -54.85785 -68.09955 2796 ft 173 kts 292°
2026-04-16 13:15 -54.85436 -68.11959 2661 ft 179 kts 292°
2026-04-16 13:15 -54.85039 -68.14110 2553 ft 190 kts 292°
2026-04-16 13:16 -54.84607 -68.16312 2128 ft 200 kts 291°
2026-04-16 13:16 -54.84155 -68.18526 1760 ft 183 kts 291°
2026-04-16 13:16 -54.83911 -68.20651 1370 ft 172 kts 270°
2026-04-16 13:16 -54.84051 -68.22487 947 ft 142 kts 264°
2026-04-16 13:17 -54.84149 -68.24112 594 ft 131 kts 274°
2026-04-16 13:17 -54.84184 -68.25639 380 ft 129 kts 271°
2026-04-16 13:17 -54.84235 -68.27226 196 ft 134 kts 265°
2026-04-16 13:17 -54.84289 -68.28754 96 ft 112 kts 265°
2026-04-16 13:18 -54.84340 -68.29865 102 ft 79 kts 265°
2026-04-16 13:18 -54.84374 -68.30712 89 ft 64 kts 266°
2026-04-16 13:18 -54.84392 -68.31158 137 ft 29 kts 267°
2026-04-16 13:18 -54.84334 -68.31314 107 ft 14 kts 352°
2026-04-16 13:19 -54.84236 -68.31326 105 ft 14 kts 356°
2026-04-16 13:19 -54.84147 -68.31336 105 ft 12 kts 356°
2026-04-16 13:19 -54.84097 -68.31262 105 ft 10 kts 84°
2026-04-16 13:19 -54.84094 -68.31134 105 ft 11 kts 88°
2026-04-16 13:20 -54.84099 -68.31010 104 ft 10 kts 120°
2026-04-16 13:20 -54.84159 -68.30982 104 ft 9 kts 178°
2026-04-16 13:20 -54.84219 -68.30945 104 ft 11 kts 113°
2026-04-16 13:20 -54.84215 -68.30804 104 ft 14 kts 86°
2026-04-16 13:21 -54.84182 -68.30671 103 ft 11 kts
2026-04-16 13:21 -54.84124 -68.30688 103 ft 7 kts 320°
2026-04-16 13:21 -54.84116 -68.30762 104 ft 8 kts 277°
2026-04-16 13:21 -54.84097 -68.30794 104 ft 0 kts 13°